User: anonymous   Login
Location: B?jaj?g
(11.7167°N, 92.6667°E)
Time: 07:29:22
(UTC+00:00)
Language:

Sakura Rocket - Orbit

View from above orbital plane
View from above orbital plane
View from above satellite
View from above satellite

Ground track
Ground track

The orbit data is extracted from the following two-line orbital elements,

1 10517U 77118B   20336.88709639  .00000955  00000-0  16503-3 0  9999
2 10517  28.6583 266.0433 0845869  55.6286 312.1385 13.39926622 79208
Epoch (UTC): 01 December 2020 21:17:25
Eccentricity: 0.0845869
inclination: 28.6583°
perigee height: 476 km
apogee height: 1743 km
right ascension of ascending node: 266.0433°
argument of perigee: 55.6286°
revolutions per day: 13.39926622
mean anomaly at epoch: 312.1385°
orbit number at epoch: 7920

The dashed part of the orbit path shows where the satellite is in the earth's shadow,  

DLR